TimeEDT,TemperatureF,Dew PointF,Humidity,Sea Level PressureIn,VisibilityMPH,Wind Direction,Wind SpeedMPH,Gust SpeedMPH,PrecipitationIn,Events,Conditions,WindDirDegrees,DateUTC
12:15 AM,75.2,73.4,94,29.97,4.0,South,6.9,-,N/A,,Mostly Cloudy,190,2013-07-19 04:15:00
12:35 AM,75.2,73.4,94,29.97,4.0,SSW,4.6,-,N/A,,Overcast,200,2013-07-19 04:35:00
12:55 AM,75.2,73.4,94,29.97,3.0,South,5.8,-,N/A,,Overcast,190,2013-07-19 04:55:00
1:15 AM,75.2,73.4,94,29.97,3.0,South,5.8,-,N/A,,Mostly Cloudy,190,2013-07-19 05:15:00
1:35 AM,75.2,73.4,94,29.96,4.0,South,6.9,-,N/A,,Partly Cloudy,190,2013-07-19 05:35:00
1:55 AM,75.2,73.4,94,29.96,4.0,SSW,6.9,-,N/A,,Clear,200,2013-07-19 05:55:00
2:15 AM,75.2,73.4,94,29.96,4.0,SW,5.8,-,N/A,,Clear,220,2013-07-19 06:15:00
2:35 AM,75.2,73.4,94,29.96,4.0,SSW,5.8,-,N/A,,Clear,210,2013-07-19 06:35:00
2:55 AM,75.2,73.4,94,29.95,4.0,SW,5.8,-,N/A,,Clear,220,2013-07-19 06:55:00
3:15 AM,75.2,73.4,94,29.96,4.0,SW,6.9,-,N/A,,Partly Cloudy,230,2013-07-19 07:15:00
3:35 AM,75.2,75.2,100,29.95,4.0,SW,8.1,-,N/A,,Mostly Cloudy,230,2013-07-19 07:35:00
3:55 AM,75.2,75.2,100,29.94,4.0,WSW,9.2,-,N/A,,Overcast,240,2013-07-19 07:55:00
4:15 AM,75.2,75.2,100,29.95,4.0,WSW,11.5,-,N/A,,Overcast,250,2013-07-19 08:15:00
4:35 AM,75.2,75.2,100,29.94,4.0,WSW,8.1,-,N/A,,Overcast,250,2013-07-19 08:35:00
4:55 AM,75.2,75.2,100,29.94,3.0,WSW,8.1,-,N/A,,Overcast,240,2013-07-19 08:55:00
5:15 AM,75.2,75.2,100,29.94,3.0,WSW,8.1,-,N/A,,Overcast,250,2013-07-19 09:15:00
5:35 AM,75.2,75.2,100,29.93,2.5,WSW,8.1,-,N/A,,Overcast,240,2013-07-19 09:35:00
5:55 AM,75.2,75.2,100,29.94,2.5,SW,8.1,-,N/A,,Mostly Cloudy,230,2013-07-19 09:55:00
6:15 AM,75.2,75.2,100,29.93,2.5,SW,5.8,-,N/A,,Mostly Cloudy,230,2013-07-19 10:15:00
6:35 AM,75.2,75.2,100,29.93,2.5,SW,6.9,-,N/A,,Mostly Cloudy,230,2013-07-19 10:35:00
6:55 AM,75.2,75.2,100,29.93,3.0,SW,4.6,-,N/A,,Partly Cloudy,230,2013-07-19 10:55:00
7:15 AM,77.0,75.2,94,29.93,4.0,SW,8.1,-,N/A,,Clear,230,2013-07-19 11:15:00
7:35 AM,77.0,75.2,94,29.93,5.0,WSW,6.9,-,N/A,,Clear,240,2013-07-19 11:35:00
7:55 AM,78.8,75.2,89,29.93,5.0,SW,11.5,-,N/A,,Clear,230,2013-07-19 11:55:00
8:15 AM,80.6,75.2,84,29.93,6.0,WSW,10.4,-,N/A,,Clear,240,2013-07-19 12:15:00
8:35 AM,80.6,75.2,84,29.93,7.0,WSW,12.7,-,N/A,,Clear,240,2013-07-19 12:35:00
8:55 AM,80.6,75.2,84,29.93,7.0,WSW,10.4,18.4,N/A,,Clear,250,2013-07-19 12:55:00
9:15 AM,82.4,75.2,79,29.92,7.0,WSW,13.8,18.4,N/A,,Clear,240,2013-07-19 13:15:00
9:35 AM,82.4,75.2,79,29.92,7.0,SW,15.0,21.9,N/A,,Clear,230,2013-07-19 13:35:00
9:55 AM,84.2,75.2,74,29.92,7.0,WSW,17.3,-,N/A,,Clear,240,2013-07-19 13:55:00
10:15 AM,84.2,75.2,74,29.92,8.0,WSW,17.3,21.9,N/A,,Clear,240,2013-07-19 14:15:00
10:35 AM,84.2,75.2,74,29.92,7.0,WSW,15.0,21.9,N/A,,Clear,250,2013-07-19 14:35:00
10:55 AM,84.2,75.2,74,29.91,7.0,WSW,19.6,24.2,N/A,,Clear,240,2013-07-19 14:55:00
11:15 AM,84.2,75.2,74,29.91,8.0,WSW,13.8,23.0,N/A,,Clear,240,2013-07-19 15:15:00
11:35 AM,84.2,75.2,74,29.91,8.0,WSW,17.3,-,N/A,,Clear,240,2013-07-19 15:35:00
11:55 AM,86.0,77.0,74,29.90,8.0,WSW,17.3,23.0,N/A,,Clear,240,2013-07-19 15:55:00
12:15 PM,86.0,77.0,74,29.90,8.0,WSW,17.3,21.9,N/A,,Clear,250,2013-07-19 16:15:00
12:35 PM,86.0,77.0,74,29.89,8.0,WSW,16.1,25.3,N/A,,Clear,240,2013-07-19 16:35:00
12:55 PM,86.0,75.2,70,29.88,8.0,WSW,19.6,24.2,N/A,,Clear,240,2013-07-19 16:55:00
1:15 PM,87.8,75.2,66,29.88,9.0,WSW,20.7,28.8,N/A,,Clear,240,2013-07-19 17:15:00
1:35 PM,89.6,75.2,62,29.87,10.0,WSW,17.3,27.6,N/A,,Clear,240,2013-07-19 17:35:00
1:55 PM,89.6,75.2,62,29.86,10.0,WSW,21.9,28.8,N/A,,Clear,240,2013-07-19 17:55:00
2:15 PM,89.6,75.2,62,29.85,10.0,SW,23.0,29.9,N/A,,Clear,230,2013-07-19 18:15:00
2:35 PM,89.6,75.2,62,29.85,10.0,SW,21.9,31.1,N/A,,Clear,230,2013-07-19 18:35:00
2:55 PM,86.0,75.2,70,29.84,10.0,WSW,19.6,32.2,N/A,,Clear,240,2013-07-19 18:55:00
3:15 PM,86.0,75.2,70,29.83,9.0,WSW,19.6,29.9,N/A,,Clear,240,2013-07-19 19:15:00
3:35 PM,86.0,75.2,70,29.83,8.0,WSW,17.3,27.6,N/A,,Clear,240,2013-07-19 19:35:00
3:55 PM,86.0,75.2,70,29.82,9.0,WSW,24.2,33.4,N/A,,Clear,240,2013-07-19 19:55:00
4:15 PM,86.0,75.2,70,29.82,9.0,WSW,20.7,28.8,N/A,,Clear,240,2013-07-19 20:15:00
4:35 PM,86.0,75.2,70,29.82,8.0,WSW,20.7,33.4,N/A,,Clear,240,2013-07-19 20:35:00
5:15 PM,84.2,75.2,74,29.81,7.0,WSW,23.0,31.1,N/A,,Clear,240,2013-07-19 21:15:00
5:35 PM,84.2,75.2,74,29.80,7.0,WSW,21.9,34.5,N/A,,Clear,250,2013-07-19 21:35:00
5:55 PM,82.4,75.2,79,29.79,7.0,SW,21.9,32.2,N/A,,Clear,230,2013-07-19 21:55:00
6:15 PM,82.4,75.2,79,29.80,7.0,WSW,23.0,32.2,N/A,,Clear,240,2013-07-19 22:15:00
6:35 PM,82.4,75.2,79,29.80,7.0,WSW,20.7,34.5,N/A,,Clear,240,2013-07-19 22:35:00
6:55 PM,80.6,73.4,79,29.81,7.0,WSW,21.9,33.4,N/A,,Clear,240,2013-07-19 22:55:00
7:15 PM,80.6,73.4,79,29.81,6.0,WSW,20.7,27.6,N/A,,Haze,240,2013-07-19 23:15:00
7:35 PM,80.6,73.4,79,29.80,7.0,WSW,20.7,28.8,N/A,,Clear,240,2013-07-19 23:35:00
7:55 PM,78.8,73.4,83,29.81,6.0,WSW,25.3,29.9,N/A,,Haze,240,2013-07-19 23:55:00
8:15 PM,78.8,73.4,83,29.81,5.0,WSW,19.6,26.5,N/A,,Haze,240,2013-07-20 00:15:00
8:35 PM,77.0,73.4,89,29.82,7.0,WSW,18.4,27.6,N/A,,Clear,240,2013-07-20 00:35:00
8:55 PM,77.0,73.4,89,29.83,7.0,WSW,23.0,34.5,N/A,,Clear,240,2013-07-20 00:55:00
9:15 PM,77.0,73.4,89,29.83,7.0,WSW,19.6,28.8,N/A,,Clear,240,2013-07-20 01:15:00
9:35 PM,77.0,73.4,89,29.83,7.0,WSW,19.6,26.5,N/A,,Clear,240,2013-07-20 01:35:00
9:55 PM,77.0,73.4,89,29.83,7.0,WSW,18.4,25.3,N/A,,Clear,240,2013-07-20 01:55:00
10:15 PM,77.0,73.4,89,29.84,6.0,WSW,17.3,21.9,N/A,,Clear,240,2013-07-20 02:15:00
10:35 PM,77.0,73.4,89,29.83,6.0,WSW,18.4,25.3,N/A,,Clear,240,2013-07-20 02:35:00
10:55 PM,77.0,73.4,89,29.82,6.0,WSW,18.4,26.5,N/A,,Clear,240,2013-07-20 02:55:00
11:15 PM,77.0,73.4,89,29.82,6.0,WSW,18.4,26.5,N/A,,Clear,240,2013-07-20 03:15:00
11:35 PM,77.0,73.4,89,29.82,6.0,WSW,17.3,26.5,N/A,,Clear,250,2013-07-20 03:35:00
11:55 PM,77.0,73.4,89,29.81,5.0,WSW,17.3,24.2,N/A,,Clear,250,2013-07-20 03:55:00